Theta_e
369 369 370 367 363 358 353 347 322 330 326 308 309 312 311 322 322 321 321 324 320 327 331 334 336 336 332 330 333 335 336 331 331 316 316 336 351 351 354 355 356 357 356 358 361 361 361 364 364 365 364 364 360 362 365 367 366 367 366 367 367 367 367 366 366 366 367 367 367 367 367 366 366 366 365 365 365 365 366 367 367 366 366 366 366 367 367 367 367 367 367 367 365 366 366 365 365
363 361 363 364 360 356 341 341 324 319 315 307 310 315 314 319 320 318 318 320 323 327 331 331 333 337 337 335 335 335 334 338 339 337 343 349 351 351 353 356 356 356 358 359 360 361 361 363 365 364 364 364 362 362 366 367 366 366 367 367 367 367 367 367 367 367 367 367 367 367 367 367 367 367 366 366 366 366 366 366 366 366 366 366 366 366 367 367 366 367 367 366 366 366 365 364 364
353 353 353 359 357 351 347 339 319 307 305 303 307 312 319 316 316 319 322 324 328 330 331 330 333 335 335 335 331 329 327 342 342 343 343 349 343 347 355 356 358 358 359 359 359 360 360 363 365 363 363 364 364 365 367 367 367 368 368 367 367 367 367 367 368 368 368 368 367 367 366 367 367 366 366 366 366 365 365 365 365 366 366 367 366 366 366 366 366 365 366 366 366 366 366 365 363
355 352 347 352 341 346 330 329 325 308 306 306 307 314 312 314 317 320 324 326 329 331 330 327 325 335 334 329 332 338 336 337 343 342 341 344 345 351 355 357 360 359 359 358 358 358 359 364 364 364 364 363 362 362 366 368 368 368 367 367 367 367 368 368 368 368 367 366 367 365 367 367 367 366 366 366 365 365 365 365 366 366 366 366 367 366 366 365 365 365 365 366 365 365 365 364 364
354 353 354 347 340 334 333 326 315 309 305 309 305 311 310 314 315 319 323 327 328 329 327 327 326 332 335 334 337 331 333 342 344 347 345 348 352 354 355 357 356 356 357 358 357 357 360 365 365 366 366 365 364 366 367 368 368 368 368 368 367 367 368 368 368 367 367 367 367 367 367 366 365 365 366 365 365 365 365 365 365 365 366 366 366 366 365 365 365 365 365 364 364 364 363 363 363
351 347 349 348 336 345 334 320 309 308 311 316 311 311 316 318 320 323 325 329 331 331 330 329 326 328 329 332 338 334 342 334 344 347 349 348 352 354 355 358 356 356 358 358 358 357 360 366 367 367 367 368 368 368 368 368 368 368 368 368 368 368 368 367 367 367 367 366 365 365 366 366 366 366 365 365 365 365 364 365 365 365 365 365 365 365 365 365 365 365 364 363 363 363 360 359 360
345 343 343 347 345 340 323 315 309 309 311 314 311 313 315 315 316 318 318 323 330 330 332 329 332 330 326 334 339 343 347 348 346 347 351 352 354 355 356 354 355 355 358 358 359 360 363 368 368 368 368 368 369 369 368 368 368 368 368 368 367 367 367 367 367 367 367 367 367 366 366 366 366 365 365 365 365 365 364 364 364 364 364 364 364 363 363 364 364 364 363 363 362 362 362 361 361
350 336 339 325 324 329 316 312 310 312 314 318 318 316 317 317 318 317 318 322 323 324 329 334 335 330 327 338 330 343 348 351 351 354 354 355 355 356 357 354 355 357 359 361 362 363 371 368 368 368 369 369 369 368 368 368 368 368 368 367 367 368 367 367 367 367 367 367 366 366 366 365 365 365 365 365 365 364 364 364 364 363 363 363 363 363 363 363 362 362 361 361 361 361 362 362 361
342 334 338 324 317 320 313 310 313 319 318 319 318 325 326 319 318 318 319 323 325 328 329 332 334 328 329 332 331 340 345 352 354 356 354 355 354 356 358 356 356 358 360 361 363 366 366 368 368 368 368 369 369 368 368 368 368 367 367 367 368 368 367 367 367 367 367 366 366 366 366 366 366 365 365 365 364 364 364 364 363 363 362 362 362 362 362 363 363 363 363 362 361 360 361 362 361
337 330 320 321 321 311 311 312 320 313 315 317 317 320 318 321 324 325 322 323 325 330 331 335 336 329 332 329 333 339 342 351 352 352 355 356 355 357 356 357 360 360 361 363 364 364 365 372 368 368 369 369 369 369 368 368 368 368 368 368 367 367 367 367 367 366 366 366 365 365 366 366 365 365 364 364 364 363 363 363 363 363 362 361 362 364 364 365 365 364 364 363 362 361 361 360 360
332 332 326 318 311 309 311 311 312 316 317 320 321 324 324 325 324 323 324 324 328 328 332 335 331 330 331 331 334 345 347 350 349 348 354 356 356 355 355 359 361 361 360 361 363 365 365 365 370 368 368 368 369 369 368 368 368 368 368 368 368 367 367 366 366 366 365 365 365 365 365 365 365 364 364 364 363 363 363 362 361 361 362 362 362 364 364 363 363 362 363 362 362 361 362 362 361
322 322 324 314 311 312 313 314 314 314 318 316 316 321 324 323 323 320 322 322 326 328 329 333 328 334 329 329 331 339 344 346 348 351 354 356 355 356 357 358 360 361 361 362 364 364 364 365 365 369 368 369 369 368 368 368 368 368 368 368 368 367 366 366 366 365 365 365 365 365 365 364 364 364 364 363 363 363 363 362 361 361 362 362 360 363 364 363 362 362 363 363 362 362 362 363 362
325 325 318 314 312 312 315 315 315 316 316 317 317 321 325 323 322 322 323 326 328 328 328 334 335 334 326 328 335 340 340 343 346 348 352 353 354 355 356 356 358 360 362 363 363 363 364 363 364 365 366 368 368 368 368 368 368 368 368 368 368 368 366 366 365 364 364 365 364 364 364 364 363 364 363 363 362 362 363 361 361 361 361 360 358 359 364 364 364 363 364 364 364 363 363 363 363
324 324 317 315 316 314 314 314 319 315 313 320 323 325 326 324 326 327 325 322 325 326 332 336 335 334 329 332 333 335 339 345 346 348 352 353 354 354 355 356 358 359 361 362 361 362 362 363 364 364 365 364 363 366 367 368 368 368 368 368 367 367 366 365 365 364 363 364 364 364 364 364 364 363 363 363 363 362 362 361 360 361 361 359 359 360 361 364 365 364 364 364 364 364 364 364 364
322 326 320 321 314 315 315 311 314 314 321 322 322 323 324 328 327 327 325 322 324 333 336 339 335 332 324 329 328 335 340 345 348 349 351 353 353 354 356 357 357 358 360 361 362 361 361 362 363 364 364 363 363 362 362 365 367 368 368 367 366 365 365 365 365 364 363 363 364 364 364 364 363 363 364 362 363 363 363 359 360 361 361 361 361 360 360 363 365 365 365 365 365 365 364 365 365
324 322 318 314 312 311 314 315 318 316 314 323 324 326 324 325 327 326 328 330 328 335 335 328 337 331 334 333 335 340 344 348 350 351 351 351 353 355 355 356 357 359 359 360 360 360 361 361 361 361 361 362 363 362 363 363 366 368 367 367 367 366 365 364 364 364 364 364 364 364 364 364 363 362 362 363 363 362 362 362 362 361 361 361 362 361 361 361 364 365 365 365 366 365 366 365 366
325 322 313 314 309 312 313 313 319 319 319 323 326 326 323 322 328 330 334 332 326 329 331 332 334 339 335 337 341 345 347 350 351 350 349 349 350 350 351 352 355 357 359 359 359 359 361 360 360 361 361 361 362 362 362 363 365 367 366 367 367 366 365 364 364 365 364 364 364 364 364 364 362 360 362 362 364 362 365 363 364 364 363 363 362 363 362 362 362 364 365 366 366 365 365 365 364
323 318 311 310 312 312 316 316 321 323 320 323 325 325 323 320 325 328 332 331 329 328 329 334 339 339 340 341 345 346 348 348 349 347 347 346 348 347 347 349 351 351 354 355 358 359 359 360 361 361 361 361 361 363 363 364 365 365 362 362 363 363 365 364 363 362 365 362 364 363 363 364 358 355 356 366 362 364 364 365 365 364 364 364 364 364 363 363 363 363 363 363 364 365 365 361 361
318 315 314 310 315 317 321 321 322 322 321 324 324 325 325 324 328 329 326 326 325 325 332 335 334 336 339 342 344 345 346 347 347 347 346 346 346 346 346 347 348 349 350 353 356 359 359 360 361 361 361 361 361 362 363 362 362 362 362 361 363 366 366 364 363 365 361 362 362 362 363 361 358 357 358 360 363 365 365 364 364 366 365 364 364 364 364 364 364 364 364 364 364 364 362 358 356
319 315 311 311 320 321 322 324 323 325 325 324 325 327 327 327 329 331 326 324 327 329 329 332 332 332 337 339 341 342 343 346 347 346 345 346 348 347 347 347 348 349 351 352 354 359 359 359 359 360 360 360 360 360 361 360 361 361 361 362 361 362 363 364 363 362 361 361 361 360 362 362 360 356 364 365 366 364 363 367 367 365 364 364 366 365 365 365 366 366 366 365 366 366 357 356 351
317 312 315 315 322 319 323 324 325 325 327 326 326 326 325 328 328 330 327 325 326 329 334 332 332 334 336 339 340 342 343 344 345 345 345 346 348 349 348 348 348 349 352 354 356 357 357 358 359 360 362 361 359 360 360 359 361 361 360 361 360 360 361 361 361 361 363 361 362 362 362 362 359 357 355 357 358 359 359 359 358 356 360 360 367 360 361 362 364 357 358 361 355 357 356 351 352
319 315 317 317 321 319 324 326 327 326 327 325 325 324 324 330 330 329 334 323 321 328 334 336 336 336 337 338 340 343 343 342 343 342 342 343 343 345 348 348 350 350 352 352 353 356 358 359 360 360 360 360 360 358 359 360 362 359 358 359 358 358 360 360 362 360 358 361 363 364 365 362 358 357 357 356 356 357 358 359 358 355 356 360 364 359 359 359 355 355 354 352 353 353 350 351 352
310 316 319 321 323 322 325 326 326 326 325 324 324 327 329 327 327 331 332 336 329 336 337 338 338 338 339 340 340 340 341 340 340 341 340 340 342 344 346 348 347 347 350 350 353 356 358 359 360 361 360 360 361 360 359 361 360 359 359 359 358 358 359 360 359 361 359 359 361 362 361 358 359 358 357 356 356 357 357 358 358 357 359 358 361 357 357 358 355 353 354 353 351 352 351 350 350
315 310 315 320 322 322 324 323 326 326 326 325 329 332 328 328 323 329 328 330 334 337 338 338 339 338 338 336 337 338 338 338 339 341 342 342 342 343 346 346 346 347 348 350 352 355 358 359 360 361 361 361 361 360 362 360 359 358 356 364 360 361 360 357 357 359 361 361 362 362 363 357 356 357 357 356 357 357 357 356 354 353 355 356 360 358 356 357 356 355 356 353 353 352 351 349 350
313 313 320 320 321 321 322 324 325 326 327 329 331 328 327 330 328 330 328 332 335 337 338 338 338 337 336 335 335 337 337 338 338 341 341 340 343 345 345 345 346 347 346 348 351 353 355 360 361 360 361 361 360 359 359 360 359 357 359 359 356 365 356 356 358 361 359 358 359 362 364 359 357 356 355 355 355 355 355 353 354 354 353 355 358 358 357 355 356 356 356 355 355 353 349 348 350
319 318 320 321 320 321 322 323 325 327 328 329 327 327 329 330 333 328 329 332 336 338 337 337 336 335 334 334 335 337 336 336 337 338 336 337 342 342 343 344 345 345 346 349 350 351 353 358 359 359 359 359 358 358 356 357 360 355 357 357 357 365 356 356 359 359 357 357 357 360 361 360 358 354 351 353 353 352 352 354 354 356 355 357 358 357 357 355 356 356 356 355 352 352 352 351 352
321 319 319 320 320 321 322 321 323 325 326 327 325 325 326 331 328 320 331 333 335 336 336 336 334 332 334 335 336 339 336 336 336 338 338 337 340 340 341 344 345 345 349 348 350 351 355 354 355 358 359 364 359 356 356 357 360 358 359 359 361 357 358 364 359 357 358 358 358 359 358 359 359 356 353 350 353 353 355 356 355 356 355 356 357 356 358 358 357 357 356 353 351 350 350 352 352
319 319 319 320 320 321 322 323 324 325 322 326 325 323 327 328 327 322 329 333 334 333 334 334 334 333 333 335 336 339 340 339 338 337 337 336 338 339 340 342 344 346 347 347 350 352 353 353 354 357 359 360 358 356 360 358 357 358 362 360 359 358 361 360 358 357 360 357 359 358 356 356 358 356 354 355 355 354 353 353 354 355 354 354 356 357 358 359 358 357 357 354 352 351 350 349 351
317 320 314 316 318 318 320 318 321 324 322 326 326 323 321 323 322 327 330 333 333 332 333 334 334 334 335 337 337 337 341 338 339 338 339 339 339 342 340 342 344 345 347 347 350 352 351 352 353 354 357 360 356 358 357 357 357 359 360 359 360 362 360 360 357 357 356 356 357 356 356 357 359 357 359 358 358 354 354 353 354 356 354 355 356 358 358 358 356 355 353 354 352 352 350 350 351
320 318 314 314 315 314 320 323 323 323 324 327 326 310 314 320 325 328 331 330 331 329 330 332 333 334 337 337 337 337 341 338 339 340 341 342 342 342 343 343 345 344 344 345 350 349 352 355 355 355 357 357 357 358 357 357 357 357 359 358 362 360 359 358 359 357 358 359 359 357 357 358 361 361 360 359 359 358 356 355 354 354 355 357 358 360 358 357 354 353 352 352 355 353 351 351 350
312 316 315 308 308 308 320 322 321 319 324 326 326 310 312 320 325 329 331 330 329 327 329 330 332 335 336 336 336 337 338 338 340 342 343 343 343 342 345 345 344 344 347 344 346 348 352 354 356 356 358 356 360 359 356 357 357 361 359 360 361 363 360 360 359 362 361 364 361 363 362 364 363 362 360 358 358 357 357 355 355 355 357 357 355 354 357 353 353 352 352 351 351 351 352 352 352
313 310 306 312 308 309 318 323 321 315 320 325 321 310 314 321 324 329 330 330 331 328 329 330 332 334 335 334 335 337 335 340 340 342 343 343 343 342 344 343 345 346 346 345 351 349 352 353 358 355 357 357 357 358 359 358 360 363 366 373 366 364 366 365 367 363 362 362 366 357 358 361 358 359 359 358 356 356 354 354 355 356 357 357 357 357 356 350 352 351 349 350 349 349 349 348 350
313 309 308 307 308 309 314 319 321 320 320 322 320 311 318 319 325 329 330 329 330 329 329 329 332 334 333 333 333 335 334 339 339 340 341 341 343 342 342 342 347 350 348 352 353 353 352 356 361 354 354 357 357 360 360 361 363 362 362 364 363 363 362 364 362 363 362 361 362 356 358 359 358 358 357 356 355 356 355 354 355 356 356 356 354 353 353 354 350 348 347 352 351 348 348 347 347
306 311 307 311 308 310 308 317 321 320 320 316 321 316 317 320 325 328 329 330 329 328 328 329 330 331 333 333 335 333 334 337 338 341 343 348 351 349 351 356 352 352 355 354 355 353 352 355 358 353 353 357 358 358 359 361 364 363 361 361 364 361 361 360 363 360 359 357 357 358 359 359 358 358 356 353 351 354 356 355 355 354 354 353 353 350 349 352 351 350 347 350 350 349 346 346 345
304 307 306 307 311 312 311 311 316 320 319 317 316 315 318 320 324 326 328 330 328 326 327 329 330 331 333 333 334 335 336 337 340 344 349 350 352 351 352 353 354 355 355 355 358 359 358 356 360 362 360 356 360 360 362 363 363 362 362 359 358 360 362 361 361 359 360 358 356 358 355 354 359 357 356 354 352 355 355 351 350 351 352 350 352 351 350 351 351 349 348 348 350 350 348 348 347
310 311 309 309 308 309 308 315 318 320 315 314 314 315 317 319 321 325 327 328 327 326 329 329 330 331 332 332 335 335 336 338 344 346 350 350 352 352 353 352 355 355 357 357 361 360 360 360 359 360 363 362 362 361 361 359 357 355 355 357 357 359 359 361 360 358 358 357 359 360 355 355 356 357 357 357 355 353 352 350 349 350 349 349 348 348 347 348 348 347 348 348 348 349 350 349 348
314 313 311 309 310 311 316 317 319 320 315 313 313 317 317 319 320 323 326 326 325 325 327 327 329 330 331 332 335 335 337 340 345 348 349 351 351 352 354 354 356 357 359 358 360 360 360 359 358 356 360 360 360 358 357 356 354 353 352 353 353 358 358 357 357 357 358 356 357 357 357 355 358 358 357 355 353 358 352 350 350 349 349 348 347 348 349 349 350 349 348 349 347 345 344 345 347
314 312 310 308 311 309 315 316 319 319 315 311 316 316 316 318 320 323 325 325 323 324 325 326 329 331 331 333 334 336 339 344 346 346 348 350 351 355 355 355 357 352 357 358 360 360 359 360 357 358 359 357 358 357 357 357 355 355 354 353 353 352 351 352 352 354 355 358 356 356 357 357 356 354 356 354 354 351 351 350 350 349 348 349 349 350 348 352 349 347 347 343 346 343 342 345 345
313 311 309 306 309 314 317 317 319 318 317 313 316 314 315 318 319 322 322 323 324 325 327 327 329 330 331 333 334 336 339 339 344 345 347 349 351 354 352 354 353 354 358 358 360 360 359 359 358 358 359 357 357 359 360 358 358 356 356 356 352 350 351 353 353 355 356 353 352 355 355 353 353 353 354 355 353 353 352 351 349 348 348 350 347 346 346 346 346 345 345 342 340 341 342 343 344
307 310 308 305 309 309 306 314 316 318 315 312 315 314 314 319 320 321 322 323 324 326 328 329 330 329 331 333 335 337 337 336 341 344 346 348 350 352 351 352 353 356 358 358 358 359 358 360 360 359 361 357 359 363 363 360 359 359 357 358 356 352 346 352 347 349 345 341 340 347 342 347 353 354 352 352 352 351 350 349 348 348 348 349 348 346 345 345 345 345 345 344 342 336 337 339 346
309 312 310 308 310 310 310 311 315 318 316 315 316 313 312 315 315 317 321 324 324 324 327 328 330 330 334 335 337 338 338 337 340 343 345 347 347 349 349 351 353 354 356 356 356 359 360 358 361 359 359 360 361 361 360 359 360 356 355 352 351 352 345 350 340 339 341 345 341 340 342 344 346 348 348 346 348 347 348 347 348 348 348 348 349 346 345 345 345 344 343 341 337 336 334 337 341
305 309 309 308 312 311 313 315 313 309 306 312 315 302 304 312 315 316 320 319 320 323 322 325 327 328 332 332 334 337 340 340 342 342 343 345 347 347 348 350 351 353 354 356 357 359 359 358 361 359 358 360 361 358 360 359 358 352 349 345 339 341 336 344 340 337 336 337 338 342 342 345 345 344 345 348 348 349 347 347 349 348 348 349 348 348 345 343 341 342 342 340 339 338 336 336 336
302 304 311 309 309 309 310 313 311 302 301 309 316 304 300 312 313 316 319 322 319 320 322 324 326 327 329 332 333 336 338 339 341 342 344 343 346 346 347 348 349 351 353 356 357 358 357 359 360 359 357 359 361 360 359 359 353 352 348 343 337 342 336 341 346 343 339 342 344 340 343 343 345 344 344 344 346 349 347 348 348 348 348 348 351 347 345 343 342 342 346 342 342 343 339 335 337
300 310 310 309 308 308 308 312 311 306 312 312 312 308 303 301 310 319 320 319 321 321 320 323 326 327 328 330 334 336 337 339 339 340 342 341 343 345 345 346 347 352 354 356 356 357 357 358 359 359 358 360 358 358 356 356 345 347 341 338 345 339 333 338 337 336 342 346 345 342 340 342 346 344 345 346 348 349 347 347 345 344 346 346 352 346 345 346 346 345 345 344 343 343 341 336 336
304 310 310 308 309 309 310 310 309 308 306 300 307 309 303 302 310 318 319 315 318 318 320 320 324 326 327 328 333 336 337 339 339 339 338 337 339 344 345 346 348 352 354 354 355 356 358 358 359 358 358 357 356 356 351 349 343 344 345 344 340 343 338 343 343 345 341 342 338 341 342 343 344 346 344 343 347 345 349 344 342 342 342 343 345 344 343 344 344 343 340 340 339 340 341 340 337
309 312 311 310 310 310 309 304 305 308 303 298 304 308 299 300 311 312 317 315 315 317 320 321 324 325 325 326 331 334 336 338 338 338 337 338 340 342 345 347 348 351 353 355 355 357 358 358 358 357 356 355 353 350 347 346 345 348 338 343 338 340 342 341 338 337 337 343 336 336 340 343 343 339 340 344 344 344 345 343 342 342 341 345 346 342 341 340 341 341 339 337 339 340 339 339 335
313 311 309 308 307 307 307 307 302 300 297 298 307 308 306 299 309 312 312 313 317 319 319 321 324 325 326 326 330 332 335 337 336 336 337 338 341 342 346 345 347 350 351 354 355 356 357 357 357 355 354 351 349 347 343 342 340 343 339 338 336 337 338 339 337 338 339 341 338 339 339 340 337 337 342 343 345 344 345 346 342 343 344 346 344 340 340 341 340 339 340 341 341 338 336 335 336
311 306 305 304 305 307 305 305 304 296 291 301 304 305 307 296 305 314 318 320 321 320 319 319 321 324 326 326 328 331 335 335 335 334 335 336 339 342 345 343 345 349 352 353 355 356 356 356 355 352 350 348 346 345 342 341 338 338 342 340 338 338 336 336 332 334 335 335 337 338 339 338 338 341 341 341 343 343 344 342 346 342 344 341 341 341 342 341 341 340 339 339 340 339 337 338 334
307 305 304 301 299 297 293 297 292 292 291 302 305 306 302 301 307 317 319 320 321 322 322 321 322 323 326 327 327 330 335 334 333 332 334 335 337 341 342 342 347 350 351 353 354 355 355 353 352 349 346 345 344 344 342 341 341 339 341 336 339 344 338 336 335 335 337 335 338 336 334 335 336 336 336 338 341 342 342 339 342 341 341 342 342 341 340 340 339 339 338 337 337 337 337 336 334
304 301 301 298 294 293 288 292 295 295 302 305 304 307 300 305 310 317 319 321 323 324 324 323 323 324 326 328 328 330 333 332 332 332 333 334 336 340 341 342 349 350 352 353 354 354 353 351 349 347 345 344 344 343 343 341 342 340 338 339 341 340 335 334 338 335 338 343 339 334 334 335 334 334 336 339 341 342 342 343 343 342 341 342 343 340 340 340 340 338 337 336 336 336 338 336 336
304 306 304 302 299 298 291 293 289 292 294 301 308 302 297 299 302 315 319 323 323 324 325 325 325 326 327 329 329 331 332 331 332 332 333 334 335 338 340 343 350 351 352 353 353 352 351 349 347 345 344 343 343 343 343 342 341 341 339 339 339 338 340 341 337 340 338 336 338 336 335 335 336 338 338 340 343 340 341 342 342 341 341 341 342 340 343 339 339 339 339 337 338 337 337 337 335
306 307 308 304 299 308 296 297 297 299 298 299 302 301 305 304 311 318 318 321 322 324 323 325 324 325 326 328 328 329 331 332 332 333 334 334 336 337 340 345 350 351 352 352 351 350 349 348 346 345 343 343 343 344 343 342 340 342 339 337 339 341 344 341 345 343 340 336 335 334 335 336 337 338 340 341 340 340 341 341 341 340 340 340 340 340 339 338 337 336 335 336 335 342 336 335 335
303 305 298 301 307 307 303 308 305 305 302 297 309 309 312 309 311 314 318 319 320 321 322 323 323 325 325 326 328 328 330 332 332 334 335 335 336 339 342 347 350 351 351 350 349 349 348 347 345 344 343 343 342 343 343 341 340 339 338 337 337 340 339 336 336 338 337 337 337 337 333 335 339 338 338 341 340 340 339 339 338 339 339 340 339 339 339 338 337 337 335 334 334 336 336 334 334
306 300 302 310 311 309 307 298 302 297 292 296 301 298 300 301 298 310 312 315 316 315 319 323 323 324 324 325 326 327 329 332 333 334 337 337 338 341 344 349 350 351 351 349 348 348 347 347 345 344 342 342 342 343 341 339 340 337 338 337 338 339 339 337 336 336 340 338 336 335 334 336 336 341 341 340 337 337 338 345 339 338 338 339 338 337 337 337 337 335 335 335 335 334 334 334 334
306 305 312 303 296 297 303 304 294 293 292 294 298 302 302 302 303 308 307 310 310 314 321 323 322 324 326 326 326 327 330 333 333 333 336 337 338 342 344 348 350 351 351 348 348 347 346 346 346 344 342 343 342 343 338 339 339 339 340 338 338 338 340 339 339 340 339 334 335 334 335 337 338 337 339 338 337 337 337 337 337 337 336 337 337 337 337 336 336 334 335 335 336 335 333 331 332
313 312 308 311 305 301 299 300 300 297 293 296 294 301 295 313 306 309 309 311 312 313 319 322 323 324 326 326 328 328 329 332 332 333 334 338 339 343 345 347 349 350 349 347 347 346 345 345 346 344 344 344 342 340 338 337 338 339 340 340 341 338 339 337 338 338 336 333 332 332 332 335 334 338 336 338 336 335 335 335 335 335 335 335 336 337 337 336 336 336 336 336 336 335 334 333 334
303 304 302 305 305 309 306 306 300 296 293 291 294 294 301 306 315 311 313 313 314 315 317 319 321 323 327 327 328 329 329 333 332 332 333 337 339 342 344 347 349 351 349 346 346 345 345 345 345 344 343 342 340 338 337 337 338 338 339 340 339 340 339 339 339 337 336 335 335 339 334 333 334 335 336 335 334 335 335 336 335 335 335 334 335 335 337 337 336 336 336 336 335 335 334 333 334
304 301 300 301 301 301 295 296 305 304 296 290 293 295 301 312 322 321 315 316 316 315 316 316 316 319 324 327 330 331 333 335 333 333 333 335 339 340 343 346 349 350 346 344 345 344 344 344 344 345 344 342 340 337 338 337 338 339 338 339 339 338 339 337 336 337 336 336 336 335 335 335 333 333 336 335 335 336 337 336 335 334 334 335 335 335 337 337 336 336 335 338 336 334 333 333 332
Wind_Speed
7 7 6 8 6 5 4 4 1 0 1 4 6 4 7 4 6 8 10 10 9 8 13 15 18 13 11 10 15 15 16 3 2 5 6 3 7 9 8 9 10 10 9 8 7 6 9 12 17 17 18 18 17 12 16 16 17 17 19 19 20 19 19 18 17 17 16 15 16 16 15 15 16 15 15 14 14 14 14 14 14 13 13 13 13 12 12 12 12 11 11 11 11 10 11 10 10
5 6 8 7 6 4 2 3 1 3 1 8 8 5 6 8 9 8 9 10 8 10 14 16 18 19 18 14 12 22 19 12 12 8 7 7 9 7 9 13 12 11 10 10 8 8 8 10 17 17 16 18 18 14 15 16 17 18 19 19 19 19 18 18 18 17 16 16 16 16 16 15 15 15 14 14 14 14 14 13 13 13 12 12 12 12 12 11 11 11 11 10 10 10 9 9 8
7 8 7 7 4 5 1 1 1 3 7 7 5 8 6 9 11 10 12 14 14 14 17 17 17 16 16 17 19 19 7 10 19 14 9 11 12 7 10 14 12 10 11 7 7 6 6 10 17 18 17 15 15 17 16 16 17 17 17 17 18 18 18 17 17 17 16 16 16 16 16 15 15 14 14 13 13 13 13 13 13 12 12 12 11 12 11 11 10 10 10 10 9 9 9 8 7
5 4 3 6 2 1 1 1 4 3 3 3 4 4 6 7 9 11 11 12 13 12 12 14 13 9 21 22 16 20 12 9 10 14 10 8 8 12 12 14 13 10 10 8 7 6 5 13 17 18 19 18 17 14 15 16 17 17 17 17 17 17 16 17 17 16 16 15 15 15 15 15 15 14 14 13 14 13 13 12 12 12 12 11 11 11 10 10 10 9 9 9 9 9 8 8 7
4 4 4 3 2 1 0 2 2 4 6 2 7 8 10 9 10 10 11 13 16 16 15 13 12 12 15 15 8 7 9 14 12 9 9 8 10 12 13 14 12 10 9 9 8 8 8 16 17 16 18 19 18 17 17 16 16 16 16 16 16 16 15 15 15 15 15 15 15 14 14 14 14 14 13 13 13 13 12 12 12 12 11 11 10 10 10 9 9 8 8 8 8 8 7 7 7
5 3 4 3 0 1 2 5 4 8 6 2 5 6 7 9 11 10 12 17 17 16 14 13 11 12 12 11 8 11 15 10 12 10 10 12 17 15 13 10 11 11 10 9 9 8 8 14 18 19 19 19 18 16 16 16 15 15 15 15 15 15 14 14 15 14 15 14 14 14 14 14 13 13 13 13 12 12 12 12 11 11 11 10 10 9 9 8 8 7 7 6 6 6 6 6 6
5 6 3 1 2 3 1 3 6 5 9 9 7 9 9 9 11 12 12 14 15 17 16 16 17 15 11 9 13 11 12 16 12 12 9 17 18 16 13 11 10 13 12 10 9 9 11 16 17 18 18 16 16 15 15 15 14 14 14 14 14 14 14 14 14 14 14 14 14 14 13 13 13 12 12 12 12 11 11 11 11 11 10 10 9 8 8 7 7 7 6 6 5 4 4 5 5
6 2 1 1 2 4 2 0 6 3 7 8 9 13 12 13 12 12 14 13 9 8 12 15 14 18 17 10 12 13 16 11 17 17 17 16 17 14 14 13 12 13 13 11 9 8 16 17 17 18 17 15 15 15 15 15 14 14 14 15 14 14 14 14 14 13 13 13 13 13 13 13 12 12 12 12 11 11 11 11 11 10 10 9 9 8 7 7 6 6 5 5 4 4 4 4 4
5 5 1 3 2 0 2 6 8 4 5 8 11 12 13 13 12 13 15 14 15 17 17 16 11 19 11 17 13 13 15 19 19 20 18 18 16 14 9 14 13 11 12 10 9 9 10 16 17 17 17 17 16 16 15 15 15 15 15 14 14 14 14 13 13 12 12 12 12 12 12 12 12 12 12 11 11 11 10 10 10 9 9 9 8 8 7 7 7 6 5 4 3 3 3 4 3
2 3 1 2 2 5 7 3 0 4 7 5 7 8 8 8 13 13 13 13 14 17 18 17 13 21 18 18 15 13 14 20 20 17 17 19 18 15 16 16 15 15 12 11 9 9 9 17 17 17 17 17 16 16 15 15 15 14 14 13 13 13 13 12 12 12 12 11 11 11 11 11 11 11 11 11 11 10 9 9 9 9 8 8 8 8 8 8 7 6 5 4 4 3 2 3 4
1 2 2 5 5 5 4 5 3 4 7 6 6 9 14 14 14 14 14 16 16 17 19 18 17 18 16 15 11 12 20 22 20 19 19 18 17 17 15 15 14 14 14 15 11 9 9 10 18 17 16 17 16 15 14 14 14 14 13 13 13 12 12 12 12 11 11 11 11 11 11 10 11 11 10 10 10 10 9 9 8 7 7 7 7 7 7 7 6 5 5 4 3 4 4 4 5
1 1 2 3 4 2 3 1 1 7 7 5 9 10 9 15 13 14 15 16 16 17 15 9 11 15 16 14 11 13 18 20 19 19 19 18 15 16 16 12 14 14 14 13 11 8 8 8 9 15 16 16 15 14 13 13 13 13 12 12 12 12 12 12 11 11 11 11 11 10 10 10 9 9 9 9 9 8 8 8 7 7 6 7 6 7 7 6 6 5 5 4 4 4 5 6 6
3 1 2 2 0 3 4 3 5 4 8 4 5 10 10 12 13 15 15 15 13 17 15 16 17 12 16 12 10 15 17 17 18 18 19 15 14 14 15 14 14 14 13 12 11 9 8 7 7 8 11 16 14 14 13 13 12 12 12 12 11 11 12 12 11 11 11 11 10 9 9 9 9 8 8 8 7 7 7 7 7 7 7 6 7 6 8 6 6 5 5 5 5 5 5 6 7
2 3 3 2 2 3 7 5 7 3 3 1 5 6 6 8 12 14 14 14 14 13 16 18 13 13 16 13 11 11 13 15 15 18 15 16 13 12 15 14 15 14 13 12 11 10 8 8 7 7 8 7 6 10 12 12 12 12 12 11 11 11 11 11 11 11 10 10 10 10 9 8 8 8 7 7 7 6 6 5 6 6 7 7 6 5 5 6 6 5 5 5 5 5 6 6 7
2 1 1 1 1 0 4 6 3 8 1 3 8 11 8 7 13 13 14 15 13 13 13 15 16 11 10 14 11 11 14 16 13 16 17 15 14 13 14 13 13 12 12 12 11 10 9 8 7 6 6 5 5 4 4 8 12 12 11 11 11 11 10 11 11 10 10 10 10 10 9 8 7 7 7 6 5 5 5 5 5 6 6 6 6 6 5 6 6 6 6 6 6 6 6 7 8
5 2 2 4 2 3 2 3 3 3 3 2 7 8 9 11 13 13 10 10 11 15 15 9 11 9 15 12 16 17 17 16 13 15 16 14 12 11 13 12 11 11 10 12 11 9 9 9 8 7 6 6 4 4 4 4 9 11 11 11 10 10 10 10 11 10 9 10 10 9 9 6 6 5 8 5 7 6 7 5 7 7 6 6 7 7 7 7 7 7 7 7 7 7 7 7 8
5 3 5 2 4 2 3 2 2 2 8 6 5 7 9 11 10 9 11 11 15 14 11 11 12 15 16 14 18 18 17 14 15 16 13 11 10 9 9 8 9 9 8 9 8 9 9 10 9 7 7 7 6 5 4 4 6 10 9 10 11 11 10 10 9 9 8 7 7 7 7 4 3 2 3 3 6 3 5 7 8 7 8 7 8 8 8 7 7 7 7 7 8 8 8 8 8
3 2 3 6 4 4 5 6 2 5 7 6 9 10 11 10 7 8 9 9 10 16 16 13 14 15 18 17 18 18 16 16 16 16 12 9 8 9 8 8 9 9 9 8 8 9 9 9 9 8 8 8 7 6 4 4 5 8 5 5 5 7 7 8 5 3 6 2 6 4 1 0 2 2 1 3 2 2 4 9 10 10 9 9 9 9 8 8 8 8 8 8 8 8 10 4 1
5 3 3 4 9 3 3 7 8 3 9 6 6 10 10 10 7 5 6 10 11 13 15 20 21 18 18 17 19 17 17 16 16 16 15 12 10 10 9 8 7 9 9 9 8 9 8 8 8 9 8 7 8 6 5 4 5 4 3 4 3 5 4 4 3 4 3 4 3 4 2 1 2 2 2 4 3 6 4 7 9 10 10 9 10 10 9 9 9 9 9 9 9 9 5 1 0
5 5 3 6 14 10 10 8 9 14 7 9 6 11 10 9 6 2 9 11 15 17 15 17 19 19 16 17 17 15 13 15 13 13 15 13 11 11 9 8 8 8 8 8 9 8 9 8 9 8 8 8 8 6 5 5 5 3 4 3 4 4 4 4 4 3 4 4 4 4 4 2 2 3 5 8 7 3 3 7 10 10 9 10 12 8 9 8 10 10 10 9 3 2 2 0 1
0 3 1 11 15 12 12 10 8 13 7 8 13 12 11 7 3 3 7 12 13 13 16 20 19 19 18 17 17 15 14 14 13 12 13 11 11 9 8 9 9 8 7 7 7 8 10 10 9 8 8 8 7 6 6 6 5 5 4 4 4 4 4 4 5 4 3 4 3 3 3 3 3 3 2 3 3 3 3 4 4 3 3 4 7 4 4 4 4 2 1 1 1 2 1 1 1
2 3 1 6 11 9 12 10 11 6 10 9 16 13 9 8 7 5 6 8 8 12 15 17 19 18 18 18 16 15 16 15 14 12 12 13 12 8 9 8 7 8 8 8 7 7 7 8 9 8 8 7 7 6 6 7 7 5 6 6 5 6 5 5 5 4 4 4 4 3 3 4 4 4 3 4 4 4 4 4 4 5 5 5 4 5 4 3 3 1 2 2 2 0 1 1 1
4 3 7 9 10 13 1 11 10 8 11 13 11 12 9 8 7 4 5 2 6 17 18 18 17 17 16 14 15 15 16 15 13 12 13 13 11 11 10 8 7 7 8 8 8 7 8 7 8 9 9 8 8 8 6 7 7 6 6 6 5 6 5 5 5 5 5 4 4 4 5 4 5 5 4 5 5 5 5 5 5 4 4 5 5 5 4 4 4 3 3 3 2 2 2 2 2
5 2 0 12 8 11 12 9 10 12 11 12 13 13 13 11 9 4 5 1 7 19 18 18 17 16 15 14 13 14 14 15 14 12 12 12 14 13 11 11 7 8 7 9 9 8 8 9 9 8 7 7 5 6 5 8 6 6 6 6 5 5 5 5 5 5 5 5 4 4 4 5 5 5 5 5 6 5 6 5 5 5 5 5 5 5 4 4 5 5 3 2 3 2 2 3 2
7 5 9 8 8 8 8 9 8 8 10 12 15 12 11 11 7 6 7 3 14 16 16 17 16 15 14 13 14 13 12 14 14 15 11 9 11 11 11 8 8 7 10 9 8 9 10 9 10 9 8 7 5 6 5 6 5 5 5 5 5 6 5 5 6 5 5 5 5 4 3 4 4 4 5 6 5 6 6 5 5 6 5 5 5 5 5 4 4 4 4 3 3 3 2 2 2
5 8 7 5 8 5 8 9 10 13 10 11 11 14 12 11 9 8 5 7 14 15 15 15 15 13 11 11 9 8 7 8 13 12 12 8 12 12 11 8 8 7 8 7 10 8 7 11 10 10 9 7 7 7 5 5 5 6 5 6 6 6 6 6 6 6 5 5 5 5 5 5 5 5 5 5 5 6 5 6 5 4 3 2 3 5 5 4 5 5 4 3 3 3 3 4 4
9 6 7 6 10 7 6 8 10 11 11 12 12 12 13 11 6 8 8 12 12 13 14 14 13 12 11 9 10 7 7 6 10 8 9 7 11 11 11 10 9 7 7 6 7 7 6 8 8 8 7 5 6 7 6 6 5 6 6 5 5 5 5 3 4 5 5 5 5 5 5 5 5 5 5 5 4 5 5 5 5 4 2 1 1 2 3 4 5 5 5 4 3 4 4 4 4
3 5 8 9 6 6 8 12 14 11 11 13 12 12 11 11 6 8 11 11 11 13 13 13 12 11 9 11 9 7 5 6 7 8 11 9 8 9 11 10 10 10 9 7 6 6 7 7 7 7 8 6 6 5 6 6 6 5 4 4 4 4 3 3 3 4 5 6 6 7 6 6 5 5 5 4 3 2 2 3 2 1 3 3 3 3 2 2 3 3 3 3 3 3 4 4 4
6 9 8 7 4 8 10 9 10 9 12 14 11 12 10 8 10 10 11 11 11 12 12 11 11 9 9 10 9 8 3 7 7 7 8 7 7 7 10 10 11 10 8 10 9 8 9 7 7 7 7 6 6 4 6 6 6 5 5 4 4 4 5 4 4 5 6 5 5 6 5 6 5 6 4 1 2 3 3 3 3 3 2 3 3 3 2 3 3 3 2 2 3 4 3 5 4
9 6 7 7 4 6 8 8 11 9 11 15 11 6 5 10 12 11 11 11 12 12 10 10 9 9 9 10 8 6 3 7 5 7 7 8 6 7 9 9 12 10 8 7 9 8 8 4 6 6 6 7 6 3 4 4 5 5 6 6 5 5 4 5 5 5 6 6 7 7 7 7 6 5 2 0 1 3 3 3 3 4 3 2 2 1 2 3 3 2 3 3 4 4 5 5 4
7 5 7 3 7 5 8 7 11 7 10 15 9 8 6 11 12 12 10 11 12 10 10 10 10 10 10 10 7 6 5 5 6 5 8 9 7 6 5 9 12 10 8 8 8 9 8 5 6 5 6 7 6 3 5 4 4 4 5 4 5 5 6 6 4 1 1 2 3 4 3 2 2 2 2 2 2 2 3 4 5 5 4 2 4 2 5 2 1 1 2 4 3 4 5 5 5
5 4 5 1 6 4 9 8 9 7 5 10 5 7 9 11 12 13 11 11 11 8 8 11 9 12 11 9 9 5 9 4 7 7 10 10 8 8 7 7 10 10 11 10 8 9 9 8 7 7 7 8 6 5 4 4 4 3 3 2 2 2 3 2 0 1 0 1 1 3 2 2 1 1 1 1 1 3 3 4 4 4 3 2 0 1 1 4 4 1 3 6 5 5 4 5 5
0 5 6 3 6 3 5 7 9 11 5 9 9 5 10 8 10 14 12 13 12 10 9 9 12 14 11 10 9 6 8 5 6 7 8 8 7 8 7 7 6 8 10 8 8 7 7 7 6 8 8 7 7 5 4 3 4 3 2 2 2 1 1 2 3 3 2 1 1 3 2 2 2 1 1 0 1 2 3 3 4 4 4 4 2 1 1 1 2 2 3 5 4 5 5 4 3
3 4 3 5 7 6 2 8 9 11 7 7 9 9 9 10 11 13 13 13 12 12 11 9 10 10 11 10 7 9 7 5 5 5 7 6 6 6 7 9 9 9 8 8 8 9 7 6 5 7 6 7 7 6 5 4 4 4 3 1 0 0 1 1 1 2 0 1 2 2 3 2 2 2 2 2 1 2 2 3 3 3 3 3 3 2 4 2 3 3 4 5 5 4 4 4 4
7 9 5 6 3 8 7 8 9 9 8 5 5 6 12 12 11 11 13 14 12 9 10 9 9 10 12 11 7 10 7 6 5 7 7 7 7 6 6 9 8 8 6 7 7 7 6 6 4 4 5 6 6 6 5 5 4 3 2 2 1 1 0 0 1 2 3 2 3 5 5 5 4 3 3 3 2 4 3 2 3 3 1 2 3 3 4 3 3 3 5 4 3 3 5 4 4
9 11 9 4 10 7 6 5 5 12 7 8 8 11 13 12 10 10 11 13 13 9 9 8 7 11 11 11 8 10 8 7 4 7 8 6 6 6 5 5 7 7 6 6 7 7 6 6 4 4 4 5 5 5 5 5 4 4 3 2 3 3 2 2 2 3 2 3 3 4 4 4 3 4 4 4 4 2 1 1 3 3 2 2 3 3 3 3 3 3 3 3 5 4 3 3 4
12 12 11 9 11 8 9 6 3 11 4 8 5 15 14 13 13 10 12 11 11 12 12 10 8 9 9 8 10 10 10 8 6 7 7 7 7 7 5 6 6 6 6 7 7 6 6 7 6 5 4 6 6 6 4 5 4 3 3 4 3 3 3 3 3 3 4 3 3 3 3 4 4 5 4 3 3 3 2 3 3 3 3 3 3 4 3 4 3 3 3 3 2 3 2 1 3
12 12 10 9 13 9 13 10 8 7 4 6 5 12 12 12 13 11 11 11 13 13 13 12 10 10 7 8 11 10 10 6 8 7 8 7 7 7 7 6 6 8 5 7 7 6 6 6 6 6 5 6 6 6 6 5 4 4 4 4 3 3 3 4 4 5 5 4 4 4 4 5 5 4 4 4 3 4 4 4 4 4 3 3 4 3 3 3 3 3 2 2 0 4 3 2 5
11 11 10 7 10 9 13 12 9 5 8 5 10 7 7 11 11 12 11 10 11 13 15 14 13 12 8 9 11 9 9 9 9 8 9 7 9 7 7 7 7 8 8 8 7 7 7 6 5 5 6 7 6 6 6 5 2 3 3 3 4 3 3 4 4 4 4 5 4 5 3 2 2 3 4 4 4 3 4 4 4 3 3 3 3 4 3 4 3 4 4 2 1 1 3 4 5
7 10 8 8 8 11 8 11 14 7 6 8 15 11 8 7 7 10 11 11 6 13 17 16 16 15 13 13 13 12 11 11 12 11 11 8 9 7 7 7 7 7 8 7 7 8 6 6 5 6 5 6 5 5 4 5 5 4 3 3 4 4 3 3 2 1 2 3 5 5 3 4 2 1 1 1 1 1 1 1 1 2 3 3 3 4 3 2 1 1 1 0 1 1 2 2 0
7 4 9 7 14 10 14 10 10 9 8 5 11 7 5 6 6 4 9 10 12 12 14 15 16 15 15 13 13 15 14 12 12 12 12 11 10 10 9 8 8 8 9 9 8 8 6 7 6 7 6 6 5 5 5 5 4 2 1 3 1 0 0 1 1 2 3 4 3 4 3 3 4 3 2 3 4 4 3 2 2 0 1 1 1 1 1 2 2 1 2 1 2 4 1 1 1
7 9 4 4 12 16 16 17 13 6 8 6 16 4 4 7 10 9 6 7 9 10 12 14 14 14 14 14 15 13 13 14 14 14 13 13 12 9 8 8 9 8 8 8 9 8 8 7 7 6 5 5 5 5 5 5 5 5 4 3 2 1 1 0 2 1 1 1 1 0 2 3 3 3 3 3 1 2 3 1 0 0 1 0 0 0 0 1 1 0 1 1 2 2 2 1 2
6 5 6 6 4 5 3 17 11 8 9 10 14 11 3 6 11 11 6 6 9 8 13 15 16 15 14 14 14 15 14 13 13 12 12 12 12 11 11 9 10 9 9 8 8 9 9 8 7 7 7 5 5 6 6 5 5 5 5 5 4 3 3 1 1 1 1 1 3 3 2 2 3 3 3 2 3 2 1 1 1 0 1 1 0 0 1 1 1 1 1 1 2 2 2 1 3
6 2 10 5 8 6 10 14 14 8 6 6 14 8 8 4 10 9 10 9 6 6 11 13 16 16 15 14 16 16 15 16 14 14 14 13 13 14 13 12 11 11 9 9 9 9 10 10 9 8 6 6 5 6 7 6 6 5 5 3 3 4 2 2 2 0 0 0 4 2 0 0 1 1 1 2 2 1 1 2 2 3 1 1 0 1 1 1 2 2 1 1 2 2 1 1 3
3 7 5 8 5 10 13 15 11 6 9 3 10 9 5 6 8 5 8 6 6 8 9 12 15 17 16 15 18 19 18 18 17 15 15 15 14 15 13 12 12 12 11 11 10 9 9 10 10 8 8 7 6 6 7 6 6 4 5 4 3 1 2 2 1 2 2 1 1 1 0 0 1 2 1 3 1 2 3 3 4 3 3 2 2 2 2 1 2 3 2 1 1 0 2 2 1
5 10 7 5 9 9 3 6 5 3 7 5 9 11 5 3 3 5 5 8 12 13 12 10 15 17 17 15 17 18 17 16 17 18 16 15 15 16 13 13 12 12 12 11 10 10 10 9 10 10 9 8 7 6 6 5 5 5 5 4 3 1 2 0 1 0 0 1 0 1 1 2 2 2 3 2 0 1 3 3 3 3 3 3 3 3 3 3 2 1 1 2 2 1 1 2 1
1 6 8 10 4 5 2 1 5 4 1 3 8 10 10 3 8 13 10 14 17 14 9 7 10 15 16 15 16 15 16 16 16 16 15 16 15 16 13 14 13 12 11 12 11 11 11 10 11 11 10 8 8 7 7 6 5 5 5 5 4 3 3 3 2 0 0 1 1 0 2 1 1 2 1 2 2 1 3 3 3 2 2 1 2 2 2 1 1 1 1 0 1 1 1 1 2
10 3 7 6 3 1 2 3 3 0 2 3 4 6 3 4 6 10 19 21 21 18 17 17 14 16 14 14 13 16 17 15 16 15 15 16 13 15 14 13 12 13 12 13 12 12 11 11 11 11 9 9 8 7 6 6 6 5 5 5 5 4 4 3 2 1 1 1 2 2 1 1 1 1 1 2 2 2 3 2 2 1 0 1 1 1 0 1 0 0 1 1 0 1 2 2 1
6 5 4 2 0 4 4 1 2 1 3 3 3 5 7 8 10 20 20 15 19 17 19 20 18 15 15 16 15 15 16 17 16 15 14 15 15 15 16 13 11 14 13 14 13 12 12 12 13 13 11 10 9 8 7 6 6 6 5 6 4 4 4 3 3 2 2 2 3 3 2 0 0 2 2 2 1 3 2 2 1 1 1 1 2 1 0 1 0 0 0 1 1 0 2 2 2
5 5 4 3 2 0 1 1 1 3 3 2 5 6 7 2 4 16 23 20 20 23 19 17 16 16 16 15 14 14 17 18 16 16 15 16 15 15 16 13 12 13 14 14 13 12 11 11 12 13 12 10 9 8 8 8 6 6 5 5 5 4 4 3 3 2 1 3 3 2 2 2 0 1 1 0 0 1 1 1 1 1 1 2 2 2 1 1 2 1 1 1 1 1 1 1 2
8 5 7 5 5 3 4 3 5 6 8 4 8 5 3 4 5 1 16 20 15 15 14 16 19 17 16 15 13 13 16 15 14 15 15 16 16 16 15 14 14 14 14 14 13 12 12 12 12 13 11 11 10 10 8 8 7 7 6 6 5 5 4 4 3 3 4 2 2 2 2 2 1 2 2 2 1 1 2 1 0 0 1 1 0 1 1 3 2 1 2 2 3 2 2 2 2
8 6 5 2 5 2 3 6 6 5 4 6 4 5 8 8 6 2 5 17 14 15 15 12 13 9 10 10 13 13 14 15 14 13 14 16 16 16 15 14 15 15 16 14 14 13 12 12 13 14 14 12 11 10 9 9 7 7 6 6 5 5 4 4 2 2 2 3 3 2 3 2 3 3 3 1 2 2 1 0 0 1 2 2 2 2 3 3 3 2 3 2 3 2 3 3 3
4 6 6 3 2 4 3 1 6 5 3 4 0 2 1 2 3 2 13 13 17 10 9 11 10 11 13 13 15 14 12 15 14 14 14 16 15 16 16 16 15 16 15 15 14 15 15 13 12 12 12 10 11 11 10 9 8 6 7 6 5 5 6 5 4 4 4 4 4 4 2 3 4 3 2 2 1 0 0 2 2 2 3 3 3 3 3 3 3 3 2 3 3 3 3 3 3
1 4 6 3 6 3 1 1 1 4 4 3 4 6 3 6 3 3 13 16 12 13 13 17 17 15 16 12 12 12 12 15 16 15 15 18 17 17 16 15 17 17 17 16 15 14 14 13 13 13 12 13 11 10 10 10 9 8 6 7 6 6 6 6 5 5 4 4 4 3 3 4 4 3 4 3 2 2 2 2 2 3 3 3 3 3 3 3 3 2 2 3 3 3 3 2 1
6 9 8 7 6 11 2 0 3 3 4 2 3 6 6 8 4 4 6 13 9 11 12 11 12 11 9 11 13 13 11 13 14 14 13 15 15 16 16 17 17 16 16 15 14 13 12 11 12 13 14 13 13 10 9 8 9 7 7 7 7 6 5 5 5 5 4 4 3 3 3 4 4 3 3 3 3 3 3 2 3 3 3 3 3 3 3 3 2 3 3 3 3 3 3 3 3
10 5 7 11 1 5 4 6 3 6 1 0 3 2 2 2 4 10 10 12 11 12 14 13 13 13 11 12 11 12 9 13 14 13 13 14 16 17 18 18 18 17 16 15 15 13 14 13 12 11 9 9 9 8 8 8 8 8 7 7 6 6 5 5 4 4 4 4 3 3 4 4 4 3 3 4 4 4 4 4 3 3 3 3 2 2 2 3 3 3 3 4 4 4 3 3 3
7 7 4 5 5 5 7 3 5 5 2 2 2 2 5 7 3 7 9 11 10 12 13 9 8 13 15 13 14 13 11 10 13 12 12 14 15 16 16 16 16 15 14 13 14 16 15 13 13 12 13 12 10 9 7 7 8 8 9 8 7 6 7 5 5 5 4 4 4 4 4 5 4 4 4 4 4 5 4 4 4 4 3 3 3 3 3 3 3 4 4 4 3 3 4 3 3
4 7 5 4 3 1 5 4 2 2 4 3 3 1 4 3 3 5 11 10 10 10 11 7 11 8 6 9 9 10 8 9 12 13 14 13 14 15 15 14 12 13 14 15 14 13 14 14 13 13 12 11 12 9 8 8 7 8 8 8 7 6 6 5 5 5 5 5 5 5 5 4 4 5 5 6 5 5 4 5 5 4 4 4 4 4 4 3 3 3 3 3 3 3 3 3 3
Wind_Direction
194 195 190 190 183 214 210 210 23 325 72 59 82 57 84 91 103 111 115 106 84 62 78 84 68 62 76 105 92 69 24 99 30 134 132 156 127 141 163 158 137 133 132 133 126 124 124 126 121 116 117 112 110 104 110 111 113 115 114 112 112 113 114 116 117 115 116 118 117 116 116 116 116 116 116 117 116 113 109 107 106 104 103 102 101 99 98 98 95 94 91 91 90 87 84 87 85
204 206 203 195 194 179 235 121 34 275 171 71 59 63 66 72 73 60 82 95 95 105 93 81 86 95 100 103 102 67 32 25 79 89 76 107 119 141 170 145 144 140 139 134 135 133 128 132 124 120 121 121 124 131 127 126 126 121 119 118 117 118 118 119 120 122 122 121 122 121 119 118 116 116 115 115 113 112 111 110 109 107 107 106 106 106 104 102 100 99 97 94 92 91 92 89 90
222 214 202 190 202 219 69 52 337 79 70 71 68 84 99 93 99 104 99 100 98 92 90 89 89 87 84 72 46 84 76 38 77 76 95 128 125 175 165 146 149 140 132 128 125 120 127 137 129 128 128 127 127 131 131 129 126 124 121 120 120 120 121 123 124 125 125 124 123 122 121 119 117 117 117 116 115 114 114 114 114 115 114 114 112 111 109 107 106 104 103 100 100 98 95 95 94
282 288 236 165 210 133 51 54 250 94 78 133 105 76 68 74 74 71 63 82 108 114 105 92 83 84 85 79 99 91 99 75 81 114 119 156 157 159 159 144 138 133 134 130 134 135 136 137 135 139 137 132 129 134 143 135 129 126 123 122 123 124 125 126 126 126 125 125 122 120 119 120 120 119 120 120 118 118 118 117 117 119 118 116 112 111 109 106 104 102 102 105 102 105 107 109 107
228 265 235 251 135 312 78 197 264 72 67 37 109 107 104 106 106 93 88 87 88 84 80 88 91 82 82 101 112 93 112 109 109 116 132 140 150 159 144 140 135 129 125 131 130 140 146 143 143 143 139 140 145 151 139 134 130 128 126 125 125 125 123 123 123 125 124 124 122 121 121 120 120 119 118 116 116 116 117 118 117 116 116 115 114 111 107 104 102 102 101 101 108 111 117 121 125
235 282 297 269 98 175 46 9 48 105 138 117 76 76 78 74 85 90 85 70 66 68 78 76 84 100 88 82 95 112 140 123 135 114 127 138 148 132 128 118 123 129 129 130 136 144 148 151 143 142 141 140 138 135 135 133 132 128 126 125 123 122 123 124 126 125 126 125 123 123 121 121 119 119 117 117 118 118 116 115 115 115 114 112 110 106 105 105 102 100 99 97 103 113 120 124 132
203 158 181 232 292 73 155 263 94 103 95 109 107 106 105 100 96 100 93 87 80 90 93 104 104 103 84 88 89 87 98 120 127 134 141 134 127 132 132 128 128 132 134 136 138 143 153 146 142 139 139 137 136 136 135 134 132 128 125 124 126 127 127 128 127 127 126 125 125 123 121 120 120 121 121 118 118 117 117 116 114 114 112 110 108 107 106 108 108 108 109 113 117 126 132 143 148
248 9 190 96 274 54 341 184 71 60 82 81 111 120 129 128 128 120 120 117 123 107 89 79 80 85 84 100 102 116 119 109 120 131 125 123 130 134 137 137 136 133 133 137 142 147 147 145 144 142 141 141 140 138 138 138 135 133 131 132 131 131 131 130 129 128 125 125 123 123 123 123 124 122 122 122 122 121 120 121 122 121 120 118 116 117 114 112 112 116 122 131 141 151 154 155 163
224 194 328 72 50 109 26 59 85 58 93 78 71 80 91 99 101 98 93 95 99 102 102 101 106 92 97 93 94 109 105 119 122 128 130 128 130 140 144 139 134 129 129 131 137 143 143 149 147 145 143 144 144 143 142 142 141 139 137 135 133 131 130 129 128 126 125 124 124 123 123 124 124 127 127 128 126 128 129 129 128 128 125 121 123 119 118 118 123 126 129 137 152 163 160 182 179
322 105 321 113 93 43 66 87 304 124 101 99 109 110 126 107 87 78 92 93 92 89 84 90 92 97 108 101 110 106 120 124 127 127 134 135 140 147 145 136 133 132 130 133 136 138 145 147 147 147 147 147 146 147 147 145 142 139 135 133 131 128 127 128 128 127 125 123 122 122 124 126 130 131 131 132 134 130 132 131 133 129 126 125 122 128 135 138 141 150 153 156 164 177 189 186 207
14 12 124 61 42 61 25 354 41 69 83 102 107 91 74 75 85 94 91 93 97 101 106 111 104 116 114 101 92 119 126 130 133 141 144 143 142 144 134 132 134 133 134 139 140 142 145 143 149 149 149 148 148 147 146 143 139 137 136 134 130 130 130 131 130 130 129 127 126 127 127 131 133 135 136 135 139 139 140 143 142 138 133 133 137 140 144 152 156 168 174 178 201 196 200 218 215
44 28 20 93 80 123 64 218 61 105 107 108 89 95 97 100 103 104 105 110 121 124 119 120 103 112 98 113 121 133 133 134 139 146 145 135 137 135 131 134 135 135 136 136 137 137 140 144 143 149 148 148 147 146 142 141 141 138 137 135 134 135 138 135 134 134 132 130 130 130 134 137 140 142 142 143 143 150 149 148 148 148 146 147 153 154 160 160 176 183 192 197 204 225 233 227 228
121 126 84 63 331 70 73 37 298 88 68 63 131 118 133 120 120 132 133 124 110 102 101 106 121 124 119 117 128 131 132 134 142 141 134 134 132 133 133 135 138 134 131 134 136 137 136 137 142 144 148 147 146 146 145 143 142 142 141 140 141 144 144 141 140 140 137 136 136 138 142 143 146 146 147 147 154 154 159 158 161 163 163 165 174 176 175 185 190 209 210 219 223 236 242 247 250
131 187 124 91 328 128 131 135 273 40 348 323 83 112 88 118 122 106 99 99 103 108 129 137 124 116 108 127 134 134 131 132 135 127 122 122 129 134 132 131 129 130 135 136 135 139 137 136 135 136 142 141 146 146 147 148 147 147 147 146 147 149 148 145 144 144 143 142 146 148 150 153 151 154 155 160 164 169 169 178 185 180 180 186 195 197 205 198 212 224 235 241 253 262 262 261 263
194 94 80 97 147 91 145 132 141 98 326 296 97 90 112 90 94 88 100 110 112 123 113 112 122 132 143 141 140 135 138 137 119 113 119 128 132 128 117 122 130 134 132 136 140 140 140 140 133 133 132 132 133 138 144 153 153 152 152 152 154 155 153 152 151 152 154 155 156 157 157 159 164 161 168 174 176 187 190 203 208 212 203 208 212 224 221 214 225 233 241 252 261 272 279 281 282
198 119 83 125 248 138 113 114 149 145 180 229 89 90 102 102 108 116 123 116 112 117 132 131 163 117 142 127 130 132 127 121 117 109 119 120 112 114 121 128 130 126 135 143 145 146 142 137 140 143 142 145 144 146 153 153 157 158 158 157 160 160 160 160 162 163 161 164 165 163 167 166 167 178 180 186 193 209 216 216 226 221 221 223 230 233 233 233 228 238 247 254 259 264 272 279 286
227 139 125 168 198 205 149 123 135 193 140 119 111 121 100 81 78 92 122 129 136 155 146 143 116 139 129 127 124 118 121 118 118 116 116 119 126 129 130 131 131 138 140 146 145 142 140 143 149 144 151 156 154 151 151 152 164 162 164 165 167 170 169 171 167 170 168 173 175 174 175 164 156 160 192 187 217 214 212 231 240 235 229 235 242 241 246 249 252 246 252 258 264 272 273 276 281
185 166 142 147 208 199 184 122 243 203 98 115 135 122 119 117 137 139 142 120 98 97 107 120 112 97 112 118 119 124 127 126 124 123 126 124 128 127 130 134 146 148 148 143 144 144 143 152 153 150 155 165 155 153 158 163 169 166 174 176 172 179 178 172 171 167 177 171 179 187 159 152 190 172 195 236 262 262 241 237 239 235 233 235 242 248 251 258 260 264 269 270 273 273 274 278 303
186 201 145 160 162 218 139 169 193 125 126 178 122 130 120 115 150 133 132 134 113 99 89 99 102 107 114 119 124 133 139 129 135 135 136 134 135 138 141 151 147 144 144 149 151 150 154 153 153 156 162 157 151 157 162 166 171 161 176 179 168 175 179 170 157 189 171 175 174 163 174 197 181 207 198 214 223 243 246 256 254 247 245 247 251 253 256 260 264 265 265 267 269 275 291 338 25
204 184 177 136 174 164 165 190 100 113 204 107 125 75 82 68 57 151 102 100 100 106 114 108 115 125 123 122 128 134 131 128 134 146 140 142 142 145 148 144 144 147 146 151 151 155 156 159 159 156 160 155 155 165 164 163 171 164 169 184 173 170 183 169 190 200 186 179 179 171 176 193 163 201 236 229 231 242 268 263 267 262 254 248 246 250 248 253 259 263 263 263 284 286 288 113 109
277 98 312 143 154 143 161 134 142 152 139 146 106 102 97 104 92 70 109 115 109 118 127 133 136 134 134 133 137 134 135 133 151 153 151 140 145 150 150 151 158 149 151 142 145 156 159 159 159 156 157 163 162 163 169 162 169 174 173 186 179 187 182 182 192 199 176 178 170 179 195 165 164 196 243 267 254 243 243 247 255 277 255 244 237 233 225 233 251 284 268 142 221 227 238 137 159
177 92 54 123 148 127 124 140 157 143 147 109 96 84 84 84 71 72 63 119 142 137 135 131 131 136 138 144 141 143 143 153 159 161 144 147 151 144 145 153 147 148 141 142 149 150 151 152 151 154 161 168 174 172 168 168 171 185 176 186 188 190 183 188 177 165 166 173 180 182 198 174 180 193 205 220 231 230 243 244 237 231 236 231 210 216 206 217 232 241 160 198 241 14 316 261 208
66 114 76 60 78 95 352 145 142 165 107 105 108 115 125 94 92 94 100 94 104 122 126 130 132 135 139 144 146 148 150 153 162 151 151 157 147 151 155 148 153 139 143 148 150 152 154 148 146 155 162 175 184 174 172 171 175 188 168 183 170 184 174 167 177 164 175 187 195 202 200 184 193 200 207 217 224 216 228 229 233 225 219 211 205 188 203 197 194 209 207 208 208 213 242 240 245
134 94 253 132 167 135 163 117 95 90 127 125 120 114 105 117 104 157 113 63 94 115 123 127 133 135 143 145 154 154 153 158 160 148 164 150 156 155 153 149 155 143 140 145 153 153 157 156 154 157 167 173 173 163 154 167 156 169 171 180 170 179 168 181 183 184 178 189 197 213 193 191 204 207 219 220 228 218 224 222 224 230 217 212 198 192 205 201 195 192 189 202 210 210 217 224 250
114 113 74 60 90 101 118 127 123 114 98 102 113 114 107 106 116 121 107 101 107 114 122 127 133 141 148 153 161 159 160 164 153 157 158 161 147 142 137 143 141 136 142 154 149 153 159 158 160 165 169 174 170 165 160 165 156 166 167 180 183 181 178 191 193 183 184 192 199 212 204 213 220 219 226 228 223 228 233 231 225 222 207 201 186 207 200 187 190 185 190 213 179 175 187 214 211
105 109 120 146 110 133 93 91 103 99 97 99 100 114 126 122 133 112 147 107 104 113 122 129 133 145 153 154 142 138 161 154 145 151 154 151 140 134 140 136 136 136 154 142 151 155 158 155 168 165 173 174 168 169 170 168 168 168 184 185 193 183 189 192 188 170 185 183 201 208 214 212 222 224 237 240 216 227 229 228 227 224 209 220 186 189 202 189 179 181 187 185 185 188 189 211 203
108 128 121 157 129 115 151 128 119 109 107 108 110 108 124 150 150 110 122 113 122 127 126 132 142 144 152 146 132 144 168 159 143 143 138 132 137 141 147 140 149 145 143 136 141 147 148 151 158 155 165 166 158 166 174 170 164 171 177 180 169 160 186 161 164 165 168 187 197 203 214 218 229 244 248 238 210 209 205 198 208 203 190 214 176 229 221 199 184 173 177 190 209 230 234 219 212
66 142 111 102 143 128 112 97 101 120 115 119 123 133 142 117 118 123 123 124 128 127 138 143 143 148 156 136 136 167 174 160 140 148 140 148 150 148 151 153 154 153 151 150 151 147 145 156 164 157 157 172 166 180 167 159 164 173 170 159 174 179 172 164 172 189 198 195 190 197 204 208 215 233 239 261 288 331 324 307 278 221 218 211 218 231 208 177 152 156 158 168 203 220 246 250 242
150 119 130 129 166 126 121 133 148 118 123 135 146 144 130 127 121 134 128 134 137 140 142 149 138 145 135 127 138 179 180 159 148 138 153 152 158 148 151 154 149 146 152 156 153 155 159 172 160 163 157 168 173 183 160 159 166 172 170 182 185 183 190 183 197 210 214 213 203 201 203 211 214 219 224 249 305 310 316 315 303 275 240 226 222 229 189 126 122 125 159 195 225 229 244 258 254
123 132 113 178 163 130 153 117 117 147 132 140 161 99 108 116 133 132 145 146 141 140 153 144 147 142 127 129 152 184 186 148 148 148 136 144 142 133 143 150 140 142 150 149 150 154 164 169 155 161 159 161 176 179 159 153 166 171 175 188 189 187 193 191 210 215 215 211 206 204 206 209 206 196 175 358 347 325 317 319 300 290 275 254 229 201 135 168 161 174 210 214 233 220 227 237 236
140 134 107 172 137 176 138 142 152 143 163 150 162 117 132 142 135 142 151 147 143 150 149 148 152 129 130 135 156 190 167 158 153 149 144 142 141 150 156 139 145 150 147 156 158 160 163 166 150 158 161 164 172 185 164 168 176 170 178 166 171 164 175 184 201 188 344 312 104 107 106 79 61 56 40 24 11 357 337 317 312 300 296 341 19 75 247 10 354 186 355 274 256 244 233 234 223
120 109 150 134 167 181 141 143 156 129 193 167 130 123 147 144 148 155 154 143 146 145 146 153 148 132 139 145 169 179 161 170 167 157 147 147 157 162 160 153 149 153 154 166 158 159 160 162 157 159 162 163 170 184 167 167 161 133 96 101 107 146 137 137 80 134 249 313 108 131 128 130 113 86 80 59 334 282 274 278 280 295 311 338 129 154 140 173 203 130 202 243 260 263 254 251 228
149 122 159 195 179 201 142 159 132 145 166 180 135 143 134 149 158 156 152 149 144 153 172 157 150 143 143 150 180 157 161 184 180 160 150 156 165 156 164 159 134 133 146 145 136 133 137 147 146 153 159 160 169 170 159 140 116 112 106 63 41 70 118 149 175 188 198 220 122 157 147 114 127 158 142 105 335 280 254 263 281 288 297 295 295 298 284 172 165 219 252 242 230 256 261 266 265
244 130 170 183 190 147 211 145 167 153 183 181 133 140 151 145 158 157 155 150 155 164 172 167 153 149 145 153 180 152 158 182 171 144 140 126 111 125 116 115 118 117 121 125 130 138 145 149 139 151 161 160 164 166 162 136 122 115 100 104 54 347 252 168 165 124 115 244 264 115 125 144 172 187 173 172 217 273 271 256 266 284 309 327 298 266 273 254 207 193 231 221 220 236 265 275 289
189 162 184 178 228 165 169 162 172 168 167 157 151 130 136 150 155 164 157 153 159 168 157 168 149 143 147 162 166 155 159 177 175 138 124 124 115 113 104 119 123 128 130 133 132 133 141 154 146 158 154 162 153 153 146 128 127 121 120 151 185 254 215 204 221 238 216 206 205 141 162 179 177 197 207 189 194 225 230 260 285 287 320 319 302 271 269 281 262 239 247 270 268 241 247 260 270
163 153 186 189 180 181 198 164 184 170 159 145 179 130 143 157 157 162 164 157 161 164 151 149 147 148 155 166 153 159 161 173 167 137 134 134 129 127 124 126 124 136 138 139 134 145 140 147 150 147 149 135 135 131 129 114 116 144 169 197 190 206 200 200 238 232 239 226 220 165 176 176 185 194 201 191 187 181 206 288 292 280 263 271 290 286 272 270 268 273 269 265 262 265 259 274 273
172 165 190 183 180 181 163 179 230 161 177 161 169 143 148 159 164 169 165 173 154 156 158 153 159 158 156 160 153 157 160 169 164 147 141 142 142 146 142 137 120 128 130 143 139 151 152 155 145 164 150 138 135 140 130 138 147 182 178 181 190 192 208 221 234 249 234 224 226 192 174 192 199 200 186 151 158 178 203 229 240 254 232 229 237 249 247 255 258 244 253 249 270 280 290 246 258
180 172 189 193 185 178 168 178 204 170 171 167 141 140 155 157 166 166 171 172 158 161 157 159 163 157 159 160 156 155 162 147 160 141 149 146 151 148 143 138 142 138 145 149 148 153 152 143 150 168 153 150 151 156 156 163 181 179 161 181 168 197 219 215 230 230 222 225 220 203 196 205 205 182 169 164 184 193 208 219 227 235 235 234 235 238 240 245 261 271 262 294 174 13 334 295 279
213 177 194 197 191 143 166 177 187 182 170 171 129 142 148 155 166 168 173 180 168 165 161 163 158 164 169 160 158 154 159 161 159 157 159 158 163 156 156 153 161 156 158 158 154 144 151 155 162 168 152 155 158 167 160 164 144 154 149 175 180 215 224 203 206 220 219 227 222 214 224 249 192 168 178 184 189 202 208 211 229 244 250 249 270 281 278 273 262 278 278 270 8 203 246 271 268
232 185 172 217 174 143 188 161 168 197 182 171 148 155 148 138 168 171 178 178 167 165 165 164 159 172 170 171 165 166 166 166 164 166 170 174 168 165 161 161 163 157 156 154 162 157 158 160 156 155 147 153 154 162 141 143 153 162 173 180 205 183 194 197 195 114 94 64 31 61 48 68 105 168 87 102 156 177 181 222 280 280 277 272 265 287 301 302 318 30 3 37 124 277 251 290 357
269 236 201 208 171 176 160 162 170 184 178 150 132 106 146 159 177 197 184 180 164 166 165 161 166 169 168 169 167 166 167 168 165 169 173 175 174 175 176 170 166 167 167 166 167 163 169 167 161 160 153 157 154 155 143 142 142 141 194 240 248 301 5 29 29 2 39 51 58 51 38 53 50 57 56 40 39 68 93 94 79 19 337 312 321 311 331 31 30 30 92 123 159 216 249 286 299
279 269 215 210 175 178 163 156 160 171 181 168 142 99 225 192 182 191 188 175 176 168 164 156 166 166 167 170 170 168 163 169 164 176 176 175 176 171 180 174 174 172 175 172 165 166 163 166 155 159 155 161 155 163 157 153 158 165 186 189 228 172 254 73 103 152 35 81 116 164 49 77 76 57 40 60 80 112 85 79 81 13 309 54 97 98 99 69 6 250 181 175 183 191 199 236 291
236 232 239 268 251 251 177 162 148 172 187 198 163 146 212 199 186 191 182 170 191 178 170 160 170 169 176 169 170 171 166 170 167 174 172 172 174 174 182 184 176 172 175 166 161 162 165 166 161 161 164 172 165 166 166 158 163 178 180 187 188 175 163 249 192 157 142 211 132 91 93 28 71 65 5 329 280 143 134 130 111 316 260 214 159 165 230 209 234 267 56 148 212 183 155 231 279
236 224 193 217 254 236 242 174 185 184 186 186 188 151 137 198 223 191 171 164 183 179 174 165 169 175 178 171 171 170 170 170 171 173 177 178 176 179 184 183 176 173 168 164 163 162 165 170 164 163 165 167 171 161 171 167 170 173 171 156 152 141 142 187 204 214 77 134 94 123 142 297 117 105 337 332 323 163 145 110 80 24 12 36 138 341 292 211 166 172 160 227 198 208 186 15 323
216 258 196 204 235 239 247 194 183 171 156 226 196 160 83 201 214 172 149 151 196 201 198 184 173 173 178 171 171 171 173 171 171 174 180 177 177 179 181 179 177 169 166 170 168 167 162 162 159 157 160 163 171 172 169 171 169 154 155 136 136 178 154 178 100 89 128 142 126 181 126 173 131 76 53 340 346 25 73 107 63 45 40 34 31 357 348 1 139 160 178 197 211 212 127 179 187
233 262 287 281 227 248 299 102 157 182 155 222 204 174 177 207 189 161 179 182 195 203 205 196 177 176 177 176 171 167 171 167 173 176 176 175 176 176 178 173 171 171 167 168 167 161 160 157 157 158 163 163 171 172 166 160 158 142 131 134 142 205 166 197 133 261 358 106 222 302 348 82 65 19 336 280 57 285 103 86 87 73 60 43 35 32 24 25 42 106 189 200 211 174 157 149 178
223 207 253 266 249 270 257 212 124 68 125 253 211 194 183 151 198 177 173 205 195 196 196 204 185 182 180 176 167 167 165 167 174 175 175 174 172 171 169 169 170 166 167 162 163 163 161 160 161 160 164 161 167 169 163 161 156 141 151 155 165 175 174 148 106 252 97 48 169 182 88 94 28 343 299 304 273 20 128 108 89 91 87 87 80 44 3 6 348 33 354 43 140 148 161 171 188
211 194 213 246 299 305 32 336 49 138 257 250 265 279 230 185 228 206 202 198 194 180 187 196 194 184 180 178 167 167 166 170 173 171 171 170 164 168 168 168 167 167 163 162 163 163 162 162 160 160 163 164 165 168 160 161 156 163 162 160 168 175 153 138 147 163 190 141 144 115 118 45 349 312 329 327 330 71 99 89 92 120 158 139 160 155 200 294 281 30 13 19 284 176 176 187 202
210 220 274 184 236 181 243 49 341 220 199 232 244 244 285 247 187 199 211 203 194 187 186 191 190 182 177 178 172 163 167 172 172 172 167 169 168 168 171 169 163 164 165 165 165 164 163 162 162 161 170 167 168 166 166 169 163 175 168 165 159 148 134 137 159 166 182 198 163 117 75 320 346 26 323 345 7 70 53 17 179 189 208 219 183 161 176 268 264 48 354 5 12 75 191 196 206
219 223 163 175 100 78 148 244 262 288 302 254 266 262 251 250 258 187 197 204 194 187 189 183 184 186 179 177 171 157 169 173 173 173 170 171 170 171 170 166 163 166 166 166 165 165 166 167 166 166 172 170 167 168 169 172 177 178 172 161 164 159 154 154 157 159 154 140 153 156 174 189 173 232 246 218 172 57 325 223 193 195 223 227 190 179 208 238 235 211 236 282 274 235 187 204 222
227 192 195 160 147 151 174 166 187 211 226 254 228 242 213 249 265 327 185 199 192 182 174 180 189 187 180 171 167 154 166 173 172 173 172 172 171 168 170 167 165 169 169 168 167 168 168 171 169 169 169 174 172 173 172 174 180 177 175 163 151 145 145 148 175 156 153 148 155 160 181 187 173 221 214 235 200 204 240 211 147 342 275 257 187 218 226 249 227 223 232 228 248 219 215 227 244
205 197 137 168 221 129 205 195 179 201 218 243 242 223 189 203 212 142 115 175 176 172 183 169 180 163 153 155 168 166 167 172 173 169 170 172 170 169 170 169 169 170 172 170 170 167 172 177 174 173 173 174 175 175 177 174 178 173 170 158 156 153 145 148 146 160 167 167 188 180 206 192 218 219 217 196 244 244 212 172 210 225 240 240 234 211 232 231 234 232 259 256 256 227 221 229 240
231 104 180 195 227 158 200 223 205 221 268 250 214 322 353 347 278 145 124 134 158 151 146 167 173 162 159 170 178 175 164 169 173 171 167 170 170 173 173 171 171 172 173 174 173 173 173 174 176 174 174 175 176 182 178 170 173 164 168 160 161 151 154 152 166 187 197 194 190 184 185 230 225 206 228 226 195 174 242 257 245 251 248 242 232 230 223 226 216 211 225 252 255 259 248 243 239
147 161 204 180 259 259 120 214 247 219 190 251 197 237 248 153 269 235 126 132 150 149 163 173 171 161 169 171 173 177 169 172 176 175 166 170 172 174 174 174 174 176 175 173 175 173 173 173 175 174 175 176 181 183 179 168 164 168 164 164 164 165 165 173 177 203 192 168 176 189 207 238 245 220 189 189 189 216 223 246 250 258 255 248 250 248 237 231 212 206 218 229 232 244 246 232 237
157 188 155 179 182 252 154 197 265 204 213 269 265 210 229 186 224 127 134 130 135 119 138 150 152 145 144 161 176 180 164 167 173 178 167 172 173 175 175 176 178 176 175 173 170 169 169 173 177 179 179 179 179 183 182 165 159 161 165 169 168 170 170 175 185 185 166 167 174 192 211 221 212 210 204 193 192 201 206 224 223 243 258 261 250 251 248 239 215 217 238 240 238 229 224 247 253
190 185 190 185 179 176 174 182 195 121 200 59 290 307 264 260 207 162 164 140 137 118 123 137 146 151 153 160 164 172 168 173 180 180 174 174 176 176 176 175 176 176 176 172 167 168 172 173 175 177 177 175 177 182 180 168 162 154 161 164 171 176 176 175 169 166 165 166 189 223 244 239 227 218 197 190 187 202 213 219 220 223 241 259 259 254 253 249 221 214 218 233 238 227 233 236 248
200 205 197 181 217 178 186 190 182 152 170 153 242 342 314 291 281 142 139 133 129 122 125 140 156 165 162 167 170 176 175 166 181 177 179 178 178 178 179 177 176 173 172 168 169 174 173 170 174 176 175 178 180 181 177 171 162 160 159 165 175 171 181 174 174 171 166 177 195 218 223 234 240 235 213 202 213 220 217 214 220 223 224 232 244 261 254 247 244 234 231 226 234 230 232 240 234
206 181 197 174 221 58 176 277 203 181 124 199 155 201 266 302 16 86 116 123 120 119 122 129 145 167 174 160 164 170 166 168 170 176 178 182 180 182 180 175 171 168 172 175 173 171 171 173 174 173 177 182 180 175 174 173 169 164 163 168 169 169 166 171 174 176 181 185 210 222 226 225 228 244 225 223 223 225 218 214 214 221 215 216 229 238 238 234 245 237 242 238 235 238 246 243 238